Starlink 5998

operational
NORAD ID: 56468 Int'l Des: 2023-064 Owner: SPXS Country: US Constellation: starlink
LEOCIRCULAR

About Starlink 5998

Description loading...

Live Position

Loading 3D Globe...

Upcoming Passes

Altitude History

Altitude vs Time

uPlot chart will show altitude changes over time

Two-Line Element Set

1 56468U 23064W 26035.73071225 .00001041 00000-0 94985-4 0 9992
2 56468 69.9989 227.3712 0002293 274.0984 85.9913 14.98333005150316
Epoch: Feb 4, 2026 • Age: 8 hours

Current Status

Altitude 585.1 km
Velocity 7.57 km/s
Sub-Earth Point 70.09°N, 150.69°E
Launch Date May 10, 2023
Age 2.7 years
Type internet

Technical Details

Classification Payload
Mass 305.00 kg
Dry Mass 290.00 kg
Total Mass 305.00 kg
Length 0.20 m
Diameter 2.80 m
Span 9.00 m
Shape Box + pan
Manufacturer SPXS
Bus Type Starlink
Phase Status In Orbit
Owner/State SPXS/US

Large Constellations

Loading constellations...